| time (UTC) | temp C | wind direction | speed KPH | gust KPH | rain 1hr cm | rain 24hr cm | rain mn cm | humidity % | barometer mb |
| 20260510035101 | 16 | 186 | 0.0 | 0.0 | 0.00 | 0.00 | 0.00 | 93 | 1014.8 |
| 20260510034551 | 16 | 186 | 0.0 | 0.0 | 0.00 | 0.00 | 0.00 | 93 | 1014.9 |
| 20260510034055 | 17 | 186 | 0.0 | 0.0 | 0.00 | 0.00 | 0.00 | 93 | 1014.9 |
| 20260510033055 | 17 | 186 | 0.0 | 0.0 | 0.00 | 0.00 | 0.00 | 92 | 1014.9 |
| 20260510032601 | 17 | 186 | 0.0 | 0.0 | 0.00 | 0.00 | 0.00 | 92 | 1014.8 |
| 20260510032051 | 17 | 186 | 0.0 | 0.0 | 0.00 | 0.00 | 0.00 | 92 | 1014.9 |
| 20260510031558 | 17 | 186 | 0.0 | 0.0 | 0.00 | 0.00 | 0.00 | 92 | 1014.8 |
| 20260510031050 | 17 | 186 | 0.0 | 0.0 | 0.00 | 0.00 | 0.00 | 92 | 1014.9 |
| 20260510030557 | 17 | 186 | 0.0 | 0.0 | 0.00 | 0.00 | 0.00 | 92 | 1014.9 |
| 20260510030119 | 17 | 186 | 0.0 | 0.0 | 0.00 | 0.00 | 0.00 | 91 | 1014.8 |
| 20260510025054 | 17 | 186 | 0.0 | 0.0 | 0.00 | 0.00 | 0.00 | 91 | 1014.6 |
| 20260510024603 | 17 | 186 | 0.0 | 0.0 | 0.00 | 0.00 | 0.00 | 91 | 1014.5 |
| 20260510024052 | 17 | 186 | 0.0 | 0.0 | 0.00 | 0.00 | 0.00 | 91 | 1014.3 |
| 20260510023601 | 17 | 186 | 0.0 | 0.0 | 0.00 | 0.00 | 0.00 | 90 | 1014.3 |
| 20260510022555 | 17 | 186 | 0.0 | 0.0 | 0.00 | 0.00 | 0.00 | 90 | 1014.4 |
| 20260510021558 | 17 | 186 | 0.0 | 0.0 | 0.00 | 0.00 | 0.00 | 90 | 1014.3 |
| 20260510021047 | 17 | 186 | 0.0 | 0.0 | 0.00 | 0.00 | 0.00 | 90 | 1014.3 |
| 20260510020558 | 17 | 186 | 0.0 | 0.0 | 0.00 | 0.00 | 0.00 | 90 | 1014.2 |
| 20260510020049 | 17 | 186 | 0.0 | 0.0 | 0.00 | 0.00 | 0.00 | 90 | 1014.1 |
| 20260510015553 | 17 | 186 | 0.0 | 0.0 | 0.00 | 0.00 | 0.00 | 91 | 1014.0 |
| 20260510015101 | 17 | 186 | 0.0 | 0.0 | 0.00 | 0.00 | 0.00 | 91 | 1014.0 |
| 20260510014552 | 17 | 186 | 0.0 | 0.0 | 0.00 | 0.00 | 0.00 | 91 | 1013.9 |
| 20260510014102 | 17 | 186 | 0.0 | 0.0 | 0.00 | 0.00 | 0.00 | 91 | 1013.9 |
| 20260510013550 | 17 | 186 | 0.0 | 0.0 | 0.00 | 0.00 | 0.00 | 91 | 1013.8 |
| 20260510013100 | 17 | 186 | 0.0 | 0.0 | 0.00 | 0.00 | 0.00 | 90 | 1013.8 |
| 20260510012055 | 18 | 186 | 0.0 | 0.0 | 0.00 | 0.00 | 0.00 | 90 | 1013.9 |
| 20260510011559 | 18 | 186 | 0.0 | 0.0 | 0.00 | 0.00 | 0.00 | 90 | 1013.8 |
| 20260510011049 | 18 | 186 | 0.0 | 0.0 | 0.00 | 0.00 | 0.00 | 89 | 1013.8 |
| 20260510010601 | 18 | 186 | 0.0 | 0.0 | 0.00 | 0.00 | 0.00 | 89 | 1013.7 |
| 20260510010050 | 18 | 186 | 0.0 | 0.0 | 0.00 | 0.00 | 0.00 | 89 | 1013.6 |
| 20260510004558 | 18 | 186 | 0.0 | 0.0 | 0.00 | 0.00 | 0.00 | 88 | 1013.3 |
| 20260510004048 | 18 | 186 | 0.0 | 0.0 | 0.00 | 0.00 | 0.00 | 87 | 1013.3 |
| 20260510003551 | 18 | 186 | 0.0 | 0.0 | 0.00 | 0.00 | 0.00 | 87 | 1013.3 |
| 20260510003102 | 18 | 186 | 0.0 | 0.0 | 0.00 | 0.00 | 0.00 | 87 | 1013.2 |
| 20260510002550 | 18 | 186 | 0.0 | 0.0 | 0.00 | 0.00 | 0.00 | 86 | 1013.1 |
| 20260510001100 | 18 | 186 | 0.0 | 0.0 | 0.00 | 0.00 | 0.00 | 86 | 1013.0 |
| 20260510000055 | 19 | 186 | 0.0 | 0.0 | 0.00 | 0.00 | 0.00 | 85 | 1013.2 |
| 20260510000007 | 18 | 186 | 0.0 | 0.0 | 0.00 | 0.00 | 0.00 | 85 | 1012.4 |
| 20260509235047 | 19 | 186 | 0.0 | 3.2 | 0.00 | 0.00 | 0.00 | 84 | 1013.1 |
| 20260509234551 | 19 | 186 | 1.6 | 4.8 | 0.00 | 0.00 | 0.00 | 84 | 1013.1 |
| 20260509234100 | 19 | 186 | 3.2 | 6.4 | 0.00 | 0.00 | 0.00 | 83 | 1013.0 |
| 20260509233057 | 20 | 195 | 3.2 | 6.4 | 0.00 | 0.00 | 0.00 | 83 | 1012.8 |
| 20260509232605 | 20 | 173 | 0.0 | 3.2 | 0.00 | 0.00 | 0.00 | 83 | 1012.7 |
| 20260509232053 | 20 | 173 | 0.0 | 3.2 | 0.00 | 0.00 | 0.00 | 82 | 1012.6 |
| 20260509231545 | 20 | 173 | 0.0 | 3.2 | 0.00 | 0.00 | 0.00 | 82 | 1012.5 |
| 20260509231049 | 20 | 173 | 0.0 | 4.8 | 0.00 | 0.00 | 0.00 | 82 | 1012.5 |
| 20260509224547 | 20 | 198 | 1.6 | 4.8 | 0.00 | 0.00 | 0.00 | 81 | 1012.2 |
| 20260509224051 | 20 | 199 | 1.6 | 4.8 | 0.00 | 0.00 | 0.00 | 81 | 1012.2 |
| 20260509223600 | 20 | 186 | 3.2 | 4.8 | 0.00 | 0.00 | 0.00 | 80 | 1012.1 |
| 20260509223109 | 20 | 153 | 0.0 | 3.2 | 0.00 | 0.00 | 0.00 | 80 | 1012.1 |
| 20260509222047 | 20 | 153 | 1.6 | 4.8 | 0.00 | 0.00 | 0.00 | 80 | 1012.1 |
| 20260509221047 | 20 | 146 | 0.0 | 4.8 | 0.00 | 0.00 | 0.00 | 79 | 1012.1 |
| 20260509220553 | 20 | 181 | 1.6 | 6.4 | 0.00 | 0.00 | 0.00 | 79 | 1012.1 |
| 20260509215551 | 20 | 174 | 3.2 | 8.0 | 0.00 | 0.00 | 0.00 | 78 | 1012.1 |
| 20260509215059 | 20 | 139 | 1.6 | 6.4 | 0.00 | 0.00 | 0.00 | 78 | 1012.2 |
| 20260509214549 | 20 | 180 | 0.0 | 9.7 | 0.00 | 0.00 | 0.00 | 78 | 1012.2 |
| 20260509214056 | 21 | 166 | 3.2 | 9.7 | 0.00 | 0.00 | 0.00 | 77 | 1012.1 |
| 20260509213545 | 21 | 171 | 3.2 | 6.4 | 0.00 | 0.00 | 0.00 | 78 | 1012.2 |
| 20260509213051 | 20 | 180 | 3.2 | 6.4 | 0.00 | 0.00 | 0.00 | 79 | 1012.3 |
| 20260509212557 | 20 | 193 | 1.6 | 4.8 | 0.00 | 0.00 | 0.00 | 78 | 1012.1 |
| 20260509212101 | 20 | 193 | 1.6 | 4.8 | 0.00 | 0.00 | 0.00 | 78 | 1012.0 |
| 20260509211550 | 21 | 193 | 1.6 | 6.4 | 0.00 | 0.00 | 0.00 | 77 | 1011.9 |
| 20260509211507 | 20 | 193 | 1.6 | 6.4 | 0.00 | 0.00 | 0.00 | 77 | 1011.1 |
| 20260509210546 | 20 | 179 | 3.2 | 9.7 | 0.00 | 0.00 | 0.00 | 77 | 1011.9 |
| 20260509210127 | 20 | 185 | 3.2 | 6.4 | 0.00 | 0.00 | 0.00 | 77 | 1011.8 |
| 20260509205053 | 21 | 181 | 3.2 | 8.0 | 0.00 | 0.00 | 0.00 | 77 | 1011.8 |
| 20260509204559 | 20 | 164 | 1.6 | 6.4 | 0.00 | 0.00 | 0.00 | 77 | 1011.8 |
| 20260509203553 | 20 | 191 | 4.8 | 6.4 | 0.00 | 0.00 | 0.00 | 77 | 1011.8 |
| 20260509203101 | 20 | 195 | 1.6 | 4.8 | 0.00 | 0.00 | 0.00 | 77 | 1011.9 |
| 20260509202551 | 20 | 167 | 1.6 | 4.8 | 0.00 | 0.00 | 0.00 | 78 | 1011.9 |
| 20260509202058 | 20 | 181 | 0.0 | 4.8 | 0.00 | 0.00 | 0.00 | 77 | 1011.8 |
| 20260509201549 | 20 | 181 | 1.6 | 4.8 | 0.00 | 0.00 | 0.00 | 78 | 1011.8 |
| 20260509201101 | 20 | 181 | 1.6 | 6.4 | 0.00 | 0.00 | 0.00 | 77 | 1011.9 |
| 20260509200549 | 20 | 181 | 1.6 | 6.4 | 0.00 | 0.00 | 0.00 | 76 | 1012.0 |
| 20260509195602 | 20 | 176 | 1.6 | 8.0 | 0.00 | 0.00 | 0.00 | 76 | 1012.0 |
| 20260509195050 | 20 | 176 | 4.8 | 8.0 | 0.00 | 0.00 | 0.00 | 76 | 1012.1 |
| 20260509194557 | 20 | 165 | 3.2 | 8.0 | 0.00 | 0.00 | 0.00 | 77 | 1012.1 |
| 20260509194048 | 20 | 171 | 1.6 | 6.4 | 0.00 | 0.00 | 0.00 | 77 | 1012.1 |
| 20260509193106 | 20 | 184 | 1.6 | 11.3 | 0.00 | 0.00 | 0.00 | 76 | 1012.5 |
| 20260509192547 | 21 | 49 | 1.6 | 8.0 | 0.00 | 0.00 | 0.00 | 76 | 1012.5 |
| 20260509192058 | 21 | 157 | 4.8 | 8.0 | 0.00 | 0.00 | 0.00 | 77 | 1012.4 |
| 20260509190554 | 21 | 133 | 1.6 | 8.0 | 0.00 | 0.00 | 0.00 | 76 | 1012.5 |
| 20260509185608 | 21 | 179 | 3.2 | 4.8 | 0.00 | 0.00 | 0.00 | 76 | 1012.4 |
| 20260509185050 | 21 | 163 | 3.2 | 4.8 | 0.00 | 0.00 | 0.00 | 76 | 1012.4 |
| 20260509184050 | 20 | 176 | 1.6 | 6.4 | 0.00 | 0.00 | 0.00 | 76 | 1012.5 |
| 20260509183559 | 20 | 190 | 1.6 | 8.0 | 0.00 | 0.00 | 0.00 | 77 | 1012.6 |
| 20260509183047 | 20 | 117 | 3.2 | 8.0 | 0.00 | 0.00 | 0.00 | 76 | 1012.7 |
| 20260509182101 | 20 | 170 | 4.8 | 6.4 | 0.00 | 0.00 | 0.00 | 79 | 1012.8 |
| 20260509181551 | 20 | 185 | 0.0 | 6.4 | 0.00 | 0.00 | 0.00 | 79 | 1013.0 |
| 20260509181059 | 20 | 185 | 1.6 | 11.3 | 0.00 | 0.00 | 0.00 | 79 | 1013.0 |
| 20260509180551 | 20 | 170 | 4.8 | 11.3 | 0.00 | 0.00 | 0.00 | 78 | 1013.1 |
| 20260509175054 | 20 | 123 | 1.6 | 12.9 | 0.00 | 0.00 | 0.00 | 78 | 1013.1 |
| 20260509174602 | 20 | 181 | 4.8 | 12.9 | 0.00 | 0.00 | 0.00 | 80 | 1013.0 |
| 20260509173544 | 19 | 162 | 3.2 | 6.4 | 0.00 | 0.00 | 0.00 | 83 | 1013.0 |
| 20260509173056 | 19 | 187 | 0.0 | 8.0 | 0.00 | 0.00 | 0.00 | 84 | 1013.0 |
| 20260509172602 | 19 | 216 | 4.8 | 8.0 | 0.00 | 0.00 | 0.00 | 84 | 1013.1 |
| 20260509171602 | 19 | 196 | 6.4 | 9.7 | 0.00 | 0.00 | 0.00 | 84 | 1013.1 |
| 20260509171052 | 18 | 172 | 1.6 | 4.8 | 0.00 | 0.00 | 0.00 | 86 | 1012.9 |
| 20260509170601 | 18 | 155 | 1.6 | 6.4 | 0.00 | 0.00 | 0.00 | 86 | 1012.7 |
| 20260509170123 | 18 | 141 | 1.6 | 9.7 | 0.00 | 0.00 | 0.00 | 86 | 1012.8 |
| 20260509170028 | 18 | 141 | 1.6 | 9.7 | 0.00 | 0.00 | 0.00 | 86 | 1012.1 |
| 20260509165547 | 18 | 192 | 0.0 | 6.4 | 0.00 | 0.00 | 0.00 | 87 | 1012.8 |
| 20260509165054 | 18 | 184 | 0.0 | 1.6 | 0.00 | 0.00 | 0.00 | 87 | 1012.9 |
| 20260509164601 | 18 | 184 | 1.6 | 8.0 | 0.00 | 0.00 | 0.00 | 87 | 1012.9 |
| 20260509164048 | 18 | 184 | 3.2 | 8.0 | 0.00 | 0.00 | 0.00 | 86 | 1013.1 |
| 20260509163559 | 18 | 208 | 1.6 | 4.8 | 0.00 | 0.00 | 0.00 | 87 | 1013.5 |
| 20260509162557 | 18 | 170 | 1.6 | 8.0 | 0.00 | 0.00 | 0.00 | 88 | 1013.3 |
| 20260509162047 | 18 | 169 | 4.8 | 9.7 | 0.00 | 0.00 | 0.00 | 87 | 1013.3 |
| 20260509161556 | 18 | 203 | 4.8 | 8.0 | 0.00 | 0.00 | 0.00 | 89 | 1013.4 |
| 20260509161047 | 18 | 146 | 1.6 | 8.0 | 0.00 | 0.00 | 0.00 | 89 | 1013.4 |
| 20260509160552 | 18 | 176 | 3.2 | 8.0 | 0.00 | 0.00 | 0.00 | 89 | 1013.0 |
| 20260509160101 | 18 | 173 | 4.8 | 8.0 | 0.00 | 0.00 | 0.00 | 90 | 1013.1 |
| 20260509155551 | 18 | 183 | 3.2 | 6.4 | 0.00 | 0.00 | 0.00 | 90 | 1013.3 |
| 20260509154555 | 18 | 173 | 3.2 | 6.4 | 0.00 | 0.00 | 0.00 | 90 | 1013.0 |
| 20260509153558 | 18 | 175 | 3.2 | 6.4 | 0.00 | 0.00 | 0.00 | 91 | 1012.9 |
| 20260509153047 | 18 | 187 | 0.0 | 6.4 | 0.00 | 0.00 | 0.00 | 91 | 1012.9 |
| 20260509152549 | 17 | 189 | 1.6 | 9.7 | 0.00 | 0.00 | 0.00 | 91 | 1012.9 |
| 20260509152057 | 17 | 193 | 4.8 | 9.7 | 0.00 | 0.00 | 0.00 | 91 | 1012.9 |
| 20260509151058 | 17 | 195 | 4.8 | 11.3 | 0.00 | 0.00 | 0.00 | 91 | 1013.2 |
| 20260509150549 | 17 | 159 | 3.2 | 9.7 | 0.00 | 0.00 | 0.00 | 91 | 1013.5 |
| 20260509145550 | 17 | 151 | 3.2 | 9.7 | 0.00 | 0.00 | 0.00 | 92 | 1013.4 |
| 20260509144548 | 17 | 200 | 1.6 | 8.0 | 0.00 | 0.00 | 0.00 | 92 | 1013.5 |
| 20260509144057 | 17 | 183 | 1.6 | 8.0 | 0.00 | 0.00 | 0.00 | 93 | 1013.7 |
| 20260509143605 | 17 | 195 | 1.6 | 9.7 | 0.00 | 0.00 | 0.00 | 93 | 1013.6 |
| 20260509143053 | 16 | 212 | 4.8 | 12.9 | 0.00 | 0.00 | 0.00 | 93 | 1013.7 |
| 20260509142558 | 16 | 160 | 6.4 | 16.1 | 0.00 | 0.00 | 0.00 | 94 | 1013.6 |
| 20260509142049 | 16 | 185 | 3.2 | 16.1 | 0.00 | 0.00 | 0.00 | 94 | 1013.6 |
| 20260509141553 | 16 | 181 | 3.2 | 12.9 | 0.00 | 0.00 | 0.00 | 94 | 1013.5 |
| 20260509141101 | 16 | 182 | 4.8 | 12.9 | 0.00 | 0.00 | 0.00 | 94 | 1013.6 |
| 20260509140550 | 16 | 190 | 4.8 | 9.7 | 0.00 | 0.00 | 0.00 | 94 | 1013.5 |
| 20260509140056 | 16 | 190 | 4.8 | 11.3 | 0.00 | 0.00 | 0.00 | 94 | 1013.5 |
| 20260509140006 | 16 | 166 | 1.6 | 11.3 | 0.00 | 0.00 | 0.00 | 94 | 1012.8 |
| 20260509135047 | 16 | 173 | 4.8 | 12.9 | 0.00 | 0.00 | 0.00 | 95 | 1013.5 |
| 20260509134556 | 16 | 167 | 3.2 | 16.1 | 0.00 | 0.00 | 0.00 | 95 | 1013.5 |
| 20260509133558 | 16 | 214 | 4.8 | 14.5 | 0.00 | 0.00 | 0.00 | 94 | 1013.4 |
| 20260509133105 | 16 | 178 | 6.4 | 9.7 | 0.00 | 0.00 | 0.00 | 95 | 1013.1 |
| 20260509132553 | 16 | 169 | 1.6 | 9.7 | 0.00 | 0.00 | 0.00 | 95 | 1012.9 |
| 20260509132059 | 16 | 176 | 3.2 | 9.7 | 0.00 | 0.00 | 0.00 | 95 | 1012.7 |
| 20260509131101 | 16 | 176 | 3.2 | 8.0 | 0.00 | 0.00 | 0.00 | 95 | 1012.7 |
| 20260509130056 | 16 | 227 | 4.8 | 12.9 | 0.00 | 0.00 | 0.00 | 95 | 1013.1 |
| 20260509125600 | 16 | 231 | 4.8 | 12.9 | 0.00 | 0.00 | 0.00 | 95 | 1013.0 |
| 20260509124601 | 16 | 221 | 3.2 | 11.3 | 0.00 | 0.00 | 0.00 | 95 | 1012.9 |
| 20260509124048 | 16 | 245 | 3.2 | 11.3 | 0.00 | 0.00 | 0.00 | 95 | 1013.0 |
| 20260509123558 | 15 | 188 | 1.6 | 11.3 | 0.00 | 0.00 | 0.00 | 95 | 1012.9 |
| 20260509123050 | 15 | 169 | 4.8 | 9.7 | 0.00 | 0.00 | 0.00 | 95 | 1012.8 |
| 20260509122045 | 15 | 192 | 3.2 | 11.3 | 0.00 | 0.00 | 0.00 | 95 | 1012.8 |
| 20260509121557 | 15 | 181 | 3.2 | 12.9 | 0.00 | 0.00 | 0.00 | 95 | 1012.8 |
| 20260509121048 | 15 | 193 | 3.2 | 12.9 | 0.00 | 0.00 | 0.00 | 95 | 1012.7 |
| 20260509120555 | 15 | 187 | 3.2 | 8.0 | 0.00 | 0.00 | 0.00 | 95 | 1012.6 |
| 20260509120104 | 15 | 200 | 3.2 | 8.0 | 0.00 | 0.00 | 0.00 | 95 | 1012.5 |
| 20260509115553 | 15 | 198 | 4.8 | 8.0 | 0.00 | 0.00 | 0.00 | 95 | 1012.7 |
| 20260509115057 | 15 | 199 | 1.6 | 8.0 | 0.00 | 0.00 | 0.00 | 95 | 1012.6 |
| 20260509114102 | 15 | 190 | 3.2 | 6.4 | 0.00 | 0.00 | 0.00 | 94 | 1012.8 |
| 20260509113551 | 15 | 169 | 0.0 | 4.8 | 0.00 | 0.00 | 0.00 | 94 | 1012.8 |
| 20260509113100 | 15 | 158 | 0.0 | 4.8 | 0.00 | 0.00 | 0.00 | 94 | 1012.5 |
| 20260509112101 | 15 | 158 | 0.0 | 0.0 | 0.00 | 0.00 | 0.00 | 94 | 1012.0 |
| 20260509111551 | 15 | 158 | 0.0 | 0.0 | 0.00 | 0.00 | 0.00 | 94 | 1011.9 |
| 20260509111059 | 15 | 158 | 0.0 | 0.0 | 0.00 | 0.00 | 0.00 | 94 | 1012.0 |
| 20260509110547 | 15 | 158 | 0.0 | 0.0 | 0.00 | 0.00 | 0.00 | 94 | 1011.9 |
| 20260509110127 | 15 | 158 | 0.0 | 0.0 | 0.00 | 0.00 | 0.00 | 94 | 1012.0 |
| 20260509105604 | 15 | 158 | 0.0 | 0.0 | 0.00 | 0.00 | 0.00 | 94 | 1012.0 |
| 20260509105048 | 15 | 158 | 0.0 | 1.6 | 0.00 | 0.00 | 0.00 | 94 | 1011.8 |
| 20260509104601 | 15 | 158 | 0.0 | 1.6 | 0.00 | 0.00 | 0.00 | 94 | 1011.8 |
| 20260509103556 | 14 | 158 | 0.0 | 1.6 | 0.00 | 0.00 | 0.00 | 94 | 1012.2 |
| 20260509103105 | 14 | 158 | 0.0 | 1.6 | 0.00 | 0.00 | 0.00 | 94 | 1012.2 |
| 20260509102551 | 14 | 158 | 0.0 | 0.0 | 0.00 | 0.00 | 0.00 | 94 | 1012.4 |
| 20260509101553 | 14 | 158 | 0.0 | 1.6 | 0.00 | 0.00 | 0.00 | 94 | 1012.5 |
| 20260509101105 | 14 | 158 | 0.0 | 1.6 | 0.00 | 0.00 | 0.00 | 94 | 1012.4 |
| 20260509100555 | 14 | 158 | 0.0 | 1.6 | 0.00 | 0.00 | 0.00 | 94 | 1012.5 |
| 20260509095547 | 14 | 158 | 0.0 | 3.2 | 0.00 | 0.00 | 0.00 | 94 | 1012.8 |
| 20260509094547 | 14 | 158 | 0.0 | 0.0 | 0.00 | 0.00 | 0.00 | 93 | 1012.9 |
| 20260509094054 | 14 | 158 | 0.0 | 1.6 | 0.00 | 0.00 | 0.00 | 93 | 1012.9 |
| 20260509093545 | 14 | 158 | 0.0 | 3.2 | 0.00 | 0.00 | 0.00 | 93 | 1012.8 |
| 20260509093057 | 15 | 158 | 1.6 | 3.2 | 0.00 | 0.00 | 0.00 | 93 | 1012.7 |
| 20260509092602 | 15 | 158 | 0.0 | 3.2 | 0.00 | 0.00 | 0.00 | 93 | 1012.6 |
| 20260509092050 | 15 | 158 | 0.0 | 0.0 | 0.00 | 0.00 | 0.00 | 93 | 1012.6 |
| 20260509091600 | 15 | 158 | 0.0 | 0.0 | 0.00 | 0.00 | 0.00 | 93 | 1012.6 |
| 20260509091048 | 15 | 158 | 0.0 | 0.0 | 0.00 | 0.00 | 0.00 | 93 | 1012.5 |
| 20260509090556 | 15 | 158 | 0.0 | 0.0 | 0.00 | 0.00 | 0.00 | 93 | 1012.5 |
| 20260509090104 | 15 | 158 | 0.0 | 0.0 | 0.00 | 0.00 | 0.00 | 93 | 1012.4 |
| 20260509090003 | 15 | 158 | 0.0 | 0.0 | 0.00 | 0.00 | 0.00 | 93 | 1011.8 |
| 20260509085607 | 15 | 158 | 0.0 | 0.0 | 0.00 | 0.00 | 0.00 | 93 | 1012.4 |
| 20260509085052 | 15 | 158 | 0.0 | 0.0 | 0.00 | 0.00 | 0.00 | 93 | 1012.6 |
| 20260509084559 | 15 | 158 | 0.0 | 0.0 | 0.00 | 0.00 | 0.00 | 93 | 1012.4 |
| 20260509084048 | 15 | 158 | 0.0 | 0.0 | 0.00 | 0.00 | 0.00 | 93 | 1012.3 |
| 20260509083557 | 15 | 158 | 0.0 | 0.0 | 0.00 | 0.00 | 0.00 | 93 | 1012.2 |
| 20260509083104 | 15 | 158 | 0.0 | 0.0 | 0.00 | 0.00 | 0.00 | 93 | 1012.2 |
| 20260509082549 | 15 | 158 | 0.0 | 0.0 | 0.00 | 0.00 | 0.00 | 93 | 1012.3 |
| 20260509082056 | 14 | 158 | 0.0 | 0.0 | 0.00 | 0.00 | 0.00 | 92 | 1012.3 |
| 20260509081605 | 14 | 158 | 0.0 | 0.0 | 0.00 | 0.00 | 0.00 | 92 | 1012.3 |
| 20260509081054 | 15 | 158 | 0.0 | 1.6 | 0.00 | 0.00 | 0.00 | 92 | 1012.3 |
| 20260509080602 | 15 | 158 | 0.0 | 1.6 | 0.00 | 0.00 | 0.00 | 92 | 1012.3 |
| 20260509080050 | 15 | 158 | 0.0 | 0.0 | 0.00 | 0.00 | 0.00 | 92 | 1012.1 |
| 20260509075554 | 15 | 158 | 0.0 | 1.6 | 0.00 | 0.00 | 0.00 | 92 | 1012.0 |
| 20260509075101 | 15 | 158 | 0.0 | 1.6 | 0.00 | 0.00 | 0.00 | 92 | 1011.7 |
| 20260509074554 | 15 | 158 | 0.0 | 1.6 | 0.00 | 0.00 | 0.00 | 92 | 1011.8 |
| 20260509074101 | 15 | 158 | 0.0 | 3.2 | 0.00 | 0.00 | 0.00 | 91 | 1011.8 |
| 20260509073552 | 15 | 158 | 0.0 | 4.8 | 0.00 | 0.00 | 0.00 | 91 | 1011.8 |
| 20260509073102 | 15 | 148 | 1.6 | 3.2 | 0.00 | 0.00 | 0.00 | 91 | 1011.8 |
| 20260509071549 | 15 | 73 | 0.0 | 3.2 | 0.00 | 0.00 | 0.00 | 91 | 1011.7 |
| 20260509071058 | 15 | 73 | 0.0 | 4.8 | 0.00 | 0.00 | 0.00 | 91 | 1011.7 |
| 20260509070549 | 15 | 173 | 0.0 | 4.8 | 0.00 | 0.00 | 0.00 | 91 | 1011.8 |
| 20260509070057 | 15 | 173 | 0.0 | 3.2 | 0.00 | 0.00 | 0.00 | 91 | 1012.0 |
| 20260509065601 | 15 | 183 | 0.0 | 0.0 | 0.00 | 0.00 | 0.00 | 91 | 1012.1 |
| 20260509065049 | 15 | 183 | 0.0 | 0.0 | 0.00 | 0.00 | 0.00 | 91 | 1012.1 |
| 20260509064555 | 15 | 183 | 0.0 | 0.0 | 0.00 | 0.00 | 0.00 | 91 | 1012.3 |
| 20260509063602 | 15 | 183 | 0.0 | 0.0 | 0.00 | 0.00 | 0.00 | 92 | 1012.6 |
| 20260509063054 | 15 | 183 | 0.0 | 0.0 | 0.00 | 0.00 | 0.00 | 92 | 1012.6 |
| 20260509062559 | 15 | 183 | 0.0 | 0.0 | 0.00 | 0.00 | 0.00 | 92 | 1012.8 |
| 20260509062048 | 15 | 183 | 0.0 | 0.0 | 0.00 | 0.00 | 0.00 | 91 | 1012.9 |
| 20260509061558 | 15 | 183 | 0.0 | 0.0 | 0.00 | 0.00 | 0.00 | 91 | 1013.0 |
| 20260509061049 | 15 | 183 | 0.0 | 0.0 | 0.00 | 0.00 | 0.00 | 91 | 1013.0 |
| 20260509060556 | 15 | 183 | 0.0 | 0.0 | 0.00 | 0.00 | 0.00 | 91 | 1013.1 |
| 20260509055550 | 15 | 183 | 0.0 | 0.0 | 0.00 | 0.00 | 0.00 | 91 | 1013.1 |
| 20260509055101 | 15 | 183 | 0.0 | 0.0 | 0.00 | 0.00 | 0.00 | 91 | 1013.2 |
| 20260509054551 | 15 | 183 | 0.0 | 0.0 | 0.00 | 0.00 | 0.00 | 91 | 1013.2 |
| 20260509054059 | 15 | 183 | 0.0 | 0.0 | 0.00 | 0.00 | 0.00 | 91 | 1013.1 |
| 20260509053551 | 15 | 183 | 0.0 | 0.0 | 0.00 | 0.00 | 0.00 | 90 | 1013.2 |
| 20260509052548 | 15 | 183 | 0.0 | 0.0 | 0.00 | 0.00 | 0.00 | 90 | 1013.3 |
| 20260509052055 | 15 | 183 | 0.0 | 0.0 | 0.00 | 0.00 | 0.00 | 90 | 1013.3 |
| 20260509051605 | 16 | 183 | 0.0 | 0.0 | 0.00 | 0.00 | 0.00 | 90 | 1013.2 |
| 20260509051055 | 16 | 183 | 0.0 | 0.0 | 0.00 | 0.00 | 0.00 | 89 | 1013.4 |
| 20260509050605 | 16 | 189 | 0.0 | 0.0 | 0.00 | 0.00 | 0.00 | 89 | 1013.3 |
| 20260509050053 | 16 | 189 | 0.0 | 0.0 | 0.00 | 0.00 | 0.00 | 89 | 1013.5 |
| 20260509045105 | 16 | 189 | 0.0 | 0.0 | 0.00 | 0.00 | 0.00 | 89 | 1013.5 |
| 20260509044045 | 16 | 189 | 0.0 | 0.0 | 0.00 | 0.00 | 0.00 | 89 | 1013.4 |
| 20260509043556 | 16 | 189 | 0.0 | 0.0 | 0.00 | 0.00 | 0.00 | 89 | 1013.4 |
| 20260509043107 | 16 | 189 | 0.0 | 0.0 | 0.00 | 0.00 | 0.00 | 89 | 1013.7 |
| 20260509042551 | 16 | 189 | 0.0 | 0.0 | 0.00 | 0.00 | 0.00 | 89 | 1013.8 |
| 20260509041548 | 16 | 193 | 0.0 | 0.0 | 0.00 | 0.00 | 0.00 | 89 | 1013.5 |
| 20260509040549 | 16 | 193 | 0.0 | 0.0 | 0.00 | 0.00 | 0.00 | 89 | 1013.8 |
| 20260509040503 | 15 | 193 | 0.0 | 0.0 | 0.00 | 0.00 | 0.00 | 89 | 1013.1 |
| 20260509040128 | 16 | 193 | 0.0 | 0.0 | 0.00 | 0.00 | 0.00 | 89 | 1013.9 |
| 20260509035605 | 16 | 193 | 0.0 | 0.0 | 0.00 | 0.00 | 0.00 | 89 | 1014.0 |